Regional Weather Roundup
Issued by NWS

Home | Current Version | Previous Version | Graphics & Text | Print | Product List | Glossary On
Versions: 1 2 3 4 5 6 7 8 9 10 11 12 13 14 15 16 17 18 19 20 21 22 23 24 25 26 27 28 29 30 31 32 33 34 35 36 37 38 39 40 41 42 43 44 45 46 47 48 49 50
000
ASUS43 KLOT 011500
RWRIL

ILLINOIS REGIONAL WEATHER ROUNDUP
NATIONAL WEATHER SERVICE CHICAGO/ROMEOVILLE IL
1000 AM CDT WED JUL 01 2015

NOTE: "FAIR" INDICATES FEW OR NO CLOUDS BELOW 12,000 FEET WITH NO
SIGNIFICANT WEATHER AND/OR OBSTRUCTIONS TO VISIBILITY.

* THESE STATIONS ARE NOT UNDER NWS QUALITY CONTROL. THEY ALSO MAY NOT
  REPORT WEATHER SUCH AS PRECIPITATION OR FOG.

ILZ001-002-007-009-015-016-024-011600-
NORTHWEST ILLINOIS

CITY           SKY/WX    TMP DP  RH WIND       PRES   REMARKS
MOLINE         CLOUDY    66  60  81 E8        29.95R HAZE
STERLING*      PTSUNNY   66  57  72 NE9       29.97S
$$

ILZ003-004-008-010-011-017-018-011600-
NORTH CENTRAL ILLINOIS

CITY           SKY/WX    TMP DP  RH WIND       PRES   REMARKS
ROCKFORD       CLOUDY    64  55  72 VRB3      29.99S
$$

ILZ005-006-012>014-019>023-011600-
NORTHEAST ILLINOIS

CITY           SKY/WX    TMP DP  RH WIND       PRES   REMARKS
CHICAGO-OHARE  PTSUNNY   63  53  70 NE6       29.97S
CHICAGO-MIDWAY CLOUDY    63  54  72 NE5       29.97S
AURORA         PTSUNNY   64  54  69 NE9       29.97S
LANSING*       PTSUNNY   62  51  66 NE8       29.97S
WAUKEGAN       PTSUNNY   62  53  72 VRB3      29.97S
DUPAGE AIRPORT CLOUDY    63  54  72 NE6       29.97R
WHEELING       PTSUNNY   63  53  70 N7        29.99R
NORTHERLY ISL    N/A     59  52  77 NE7         N/A
$$

LMZ740>746-011600-
SOUTHERN LAKE MICHIGAN

STATION/POSITION SKY/WX   TEMP    WIND        PRES    VSBY  WAVE
                          AIR SEA DIR/SP/G                  HT/PER
                          (F)     (DEG/KT/KT) (MB)    (MI)  (FT/S)
HARRISON CRIB              56     360/  9/ 10   N/A
BURNHAM HARBOR             59      50/  6/  8   N/A
CALUMET HARBOR             58     350/  6/  8   N/A
BURNS HARBOR               58      10/  9/ 11 1015.2S
MICHIGAN CITY              58     340/  9/ 12   N/A
MICHIGAN CITY 6N           58 65   20/  8/ 10   N/A           4/ 6
ST. JOSEPH                 58 63                N/A           4/ 6
$$

ILZ025>027-034>036-040-047-049-050-058-095>099-011600-
WEST-CENTRAL ILLINOIS

CITY           SKY/WX    TMP DP  RH WIND       PRES   REMARKS
QUINCY         CLOUDY    75  67  76 S3        29.91S
MACOMB*        PTSUNNY   72  68  85 CALM      29.94S
$$

ILZ028>032-037-038-041>044-048-051>054-059>061-011600-
CENTRAL ILLINOIS

CITY           SKY/WX    TMP DP  RH WIND       PRES   REMARKS
DECATUR        CLOUDY    70  66  87 E5        29.93R FOG
PEORIA         PTSUNNY   71  63  75 NE8       29.93R
SPRINGFIELD    PTSUNNY   76  69  79 W10       29.92R
TAYLORVILLE    NOT AVBL
$$

ILZ033-039-045-046-055>057-062-063-011600-
EAST-CENTRAL ILLINOIS

CITY           SKY/WX    TMP DP  RH WIND       PRES   REMARKS
CHAMPAIGN      CLOUDY    67  63  87 E7        29.94R
MATTOON        PTSUNNY   71  67  87 S3        29.92R
$$

ILZ079-100>102-011600-
SOUTHWEST ILLINOIS

CITY           SKY/WX    TMP DP  RH WIND       PRES   REMARKS
ALTON          CLOUDY    73  73 100 VRB5      29.94R FOG
CAHOKIA*       CLOUDY    74  67  78 SW7       29.93S
SPARTA*        CLOUDY    71  68  90 SW6       29.97R
$$

ILZ064>066-069>071-074>076-080>082-084>086-088>090-092>094-011600-
SOUTH-CENTRAL ILLINOIS

CITY           SKY/WX    TMP DP  RH WIND       PRES   REMARKS
CARBONDALE     CLOUDY    72  68  87 SW9       29.97R
MARION         LGT RAIN  73  70  88 SW9       29.99R
MT. VERNON     CLOUDY    73  66  78 SW7       29.95R
SALEM*         CLOUDY    76  70  82 W3        29.94R
$$

ILZ067-068-072-073-078-083-087-091-011600-
SOUTHEAST ILLINOIS

CITY           SKY/WX    TMP DP  RH WIND       PRES   REMARKS
LAWRENCEVILLE  PTSUNNY   74  69  85 S6        29.94R
HARRISBURG*    CLOUDY    73  72  97 W3        29.97R
CARMI*         CLOUDY    74  67  80 SW5       29.94R
$$

ABBREVIATIONS USED IN REMARKS
   TC - TEMPERATURE IN CELSIUS
  WCI - WIND CHILL INDEX
   HX - HEAT INDEX
  VSB - VISIBILITY
$$



USA.gov is the U.S. government's official web portal to all federal, state and local government web resources and services.